User: anonymous   Login
Location: Innerarity Island Observatory
(30.3139°N, 87.4867°W)
Time: 23:07:58
(UTC-06:00)
Language:

FO-29 - Orbit

View from above orbital plane
View from above orbital plane
View from above satellite
View from above satellite

Ground track
Ground track

The orbit data is extracted from the following two-line orbital elements,

1 24278U 96046B   17053.17878496 -.00000039  00000-0  10521-6 0  9992
2 24278  98.5798 311.6457 0349333 275.3578  80.7806 13.53074756 13329
Epoch (UTC): 22 February 2017 04:17:27
Eccentricity: 0.0349333
inclination: 98.5798°
perigee height: 801 km
apogee height: 1321 km
right ascension of ascending node: 311.6457°
argument of perigee: 275.3578°
revolutions per day: 13.53074756
mean anomaly at epoch: 80.7806°
orbit number at epoch: 1332

The dashed part of the orbit path shows where the satellite is in the earth's shadow,  

DLR